Dies ist die Übersicht über die aktuellen Messwerte der DWD-Stationen.

Eine Auf/Abwärtssortierung der Messwerte, ist durch einen Klick auf den gewünschten Messwert im Tabellenkopf möglich (z.B. Klick auf "Temperatur 2m in °C" ändert Sortierung auf/absteigend). Die Messzeiten sind in UTC angegeben. Bei Sommerzeit sind 2 Stunden hinzu zu rechnen, bei Winterzeit 1 Stunde. Beispielsweise ist 14 UHR UTC = 15 Uhr Winterzeit bzw. 16 Uhr Sommerzeit. Die Messwerte werden jeweils zur 50igsten Minute vom DWD-Server geladen. Also jeweils 00:50 Uhr, 01:50 Uhr, 02:50, usw...

Station letzte Meldung Temperatur 2m in °C Taupunkt 2m in °C Feuchte 2m in % Temperatur 5cm in °C Mittelwind in km/h Spitzenböen in km/h Windrichtung in ° Luftdruck in hpa Sonnenscheindauer in Minuten Niederschlag in mm Sichtweite in km Neuschnee in cm Schneehöhe Gesamt in cm
Ahaus 04:00 05.0 05.0 100.0 02.7 04.0 05.0 150 1000.4 00 00.0 00.0
Alfeld 04:00 04.0 03.8 99.0 03.9 09.0 12.0 140 1001.6 00 00.0 00.0
Altenstadt 04:00 05.2 05.1 99.0 00.0 000
Andernach 04:00 06.5 06.3 99.0 06.6 06.0 10.0 160 1001.6 00 00.0 00.0
Angermünde 04:00 06.6 06.5 99.0 06.7 07.0 11.0 190 1000.7 00 00.0 00.0
Arkona 04:00 09.3 08.8 97.0 09.0 22.0 30.0 220 0997.8 00 00.0
Artern 04:00 02.0 01.8 99.0 01.4 04.0 06.0 020 1002.2 00.0 00.0
Augsburg 04:00 05.5 05.5 100.0 04.5 03.0 06.0 090 1002.8 00 00.0 00.0
Bamberg 04:00 06.1 05.4 95.0 04.8 03.0 12.0 180 1002.6 00 00.0 00.0
Barth 04:00 07.8 07.1 95.0 07.0 15.0 22.0 220 0998.3 00 00.0 00.0
Baruth 04:00
Belm 04:00 03.2 02.8 97.0 01.8 00.0 06.0 000 1000.7 00 00.0 00.0
Bergen 04:00 02.1 02.0 99.0 00.0 000 1000.5
Berlin-Dahlem (FU) 04:00 07.1 07.1 100.0 11.0 240 1000.9 00
Berlin-Schönefeld 04:00 05.9 05.3 96.0 05.8 06.0 09.0 180 1001.2 00 00.0
Berlin-Tegel 04:00
Berlin-Tempelhof 04:00 07.5 07.1 97.0 06.9 05.0 13.0 210 1001.0 00.0
Berus 04:00 05.8 05.1 95.0 06.0 03.0 06.0 110 1001.5 00 00.0 00.0
Boizenburg 04:00 03.7 03.2 97.0 01.7 07.0 10.0 210 1000.0 00 00.0 00.0
Boltenhagen 04:00 06.1 05.5 96.0 05.5 10.0 17.0 220 0999.1 00 00.0 00.0
Braunlage 04:00 02.9 02.5 97.0 00.6 05.0 13.0 270 1002.1 00.0 00.0
Braunschweig 04:00 05.5 04.9 96.0 03.4 08.0 13.0 200 1000.9 00 00.0 00.0
Bremen 04:00 03.6 03.4 99.0 02.0 02.0 04.0 190 1000.2 00 00.0
Bremerhaven 04:00 06.7 06.2 97.0 05.7 08.0 12.0 190 0999.6 00 00.0 00.0
Bremervörde 04:00 03.1 03.1 100.0 02.2 05.0 08.0 250 0999.9 00 00.0 00.0
Brocken 04:00 00.9 00.2 95.0 -01.0 13.0 16.0 250 00 00.0 00.0
Büchel (Flugplatz) 04:00 03.9 03.8 99.0 07.0 280 1001.7
Bückeburg 04:00 06.2 05.3 94.0 11.0 190 1000.4
Carlsfeld 04:00 03.1 02.6 97.0 02.9 06.0 18.0 240 00 00.2 00.0
Celle 04:00 02.7 02.6 99.0 00.0 000 1000.7
Chieming 04:00 04.2 03.9 98.0 03.2 05.0 09.0 080 1003.4 00 00.0 00.0
Cottbus 04:00 05.8 05.3 97.0 05.5 06.0 11.0 220 1002.0 00 00.0 00.0
Cuxhaven 04:00 08.1 07.3 95.0 06.4 10.0 15.0 220 0999.2 00 00.0 00.0
Deuselbach 04:00 04.6 04.0 96.0 02.3 05.0 09.0 150 1001.6 00 00.0 00.0
Diepholz 04:00 04.0 04.0 100.0 01.9 06.0 12.0 190 1000.5 00 00.0 00.0
Doberlug-Kirchhain 04:00 05.8 05.2 96.0 05.3 06.0 10.0 180 1001.9 00 00.0
Dörnick 04:00 06.7 05.9 95.0 06.0 06.0 10.0 230 0998.9 00 00.0 00.0
Dresden-Klotzsche 04:00 05.2 04.1 93.0 04.3 10.0 15.0 170 1002.4 00 00.0
Düsseldorf 04:00 06.5 06.1 97.0 05.2 15.0 21.0 150 1000.6 00 00.0
Eisenach 04:00 05.9 05.5 97.0 05.6 05.0 06.0 300 1001.9 00 00.0 00.0
Elpersbüttel 04:00 08.3 07.9 97.0 07.4 12.0 15.0 180 0999.0 00 00.0 00.0
Emden 04:00 02.3 02.3 100.0 -00.1 05.0 06.0 140 0999.6 00 00.0 00.0
Erfurt-Weimar 04:00 06.3 05.1 92.0 04.9 09.0 12.0 190 1001.8 00 00.0
Essen-Bredeney 04:00 06.8 06.0 95.0 05.5 06.0 13.0 180 1000.7 00 00.0 00.0
Faßberg 04:00 00.1 -00.2 98.0 00.0 000 1000.5
Fehmarn 04:00 11.5 09.3 86.0 11.0 28.0 37.0 250 0998.0 00 00.0 00.0
Feldberg/Mecklenburg 04:00 04.5 04.5 100.0 03.8 09.0 13.0 250 1000.2 00 00.0 00.0
Feldberg/Schwarzwald 04:00 01.3 01.2 99.0 01.2 07.0 10.0 340 00 00.0 00.0
Feuchtwangen-Heilbronn 04:00 03.2 03.1 99.0 03.3 03.0 05.0 200 1003.3 00 00.0 00.0
Fichtelberg 04:00 01.1 00.9 99.0 01.2 26.0 36.0 260 00 00.1 00.0
Frankfurt/Main 04:00 04.6 04.2 97.0 04.9 02.0 07.0 130 1001.8 00 00.0 00.0
Freiburg 04:00 08.4 08.0 97.0 08.2 04.0 07.0 360 1001.4 00 00.0 00.0
Freudenstadt 04:00 03.2 02.7 97.0 02.3 03.0 09.0 140 00 00.0 00.0
Friesoythe-Altenoythe 04:00 02.1 02.0 99.0 01.1 04.0 05.0 180 1000.0 00 00.0 00.0
Fritzlar (Flugplatz) 04:00 04.9 04.5 97.0 04.0 290 1001.8
Fürstenzell 04:00 05.5 05.5 100.0 05.1 05.0 11.0 050 1003.7 00 00.0 00.0
Gardelegen 04:00 07.2 06.8 97.0 06.6 03.0 06.0 190 1001.1 00 00.0 00.0
Garmisch-Partenkirchen 04:00 05.6 04.9 95.0 05.7 00.0 07.0 000 1003.1 00 00.2 00.0
Geilenkirchen (Flugplatz) 04:00 03.8 03.6 99.0 04.0 150 1000.6
Geisenheim 04:00 04.7 03.8 94.0 03.6 06.0 08.0 350 1001.9 00 00.0 00.0
Gelbelsee 04:00 04.8 04.7 99.0 04.5 00.0 09.0 000 1003.1 00 00.0 00.0
Genthin 04:00 07.3 06.8 97.0 07.0 02.0 07.0 200 1001.0 00 00.0 00.0
Gera-Leumnitz 04:00 05.6 04.5 93.0 04.8 08.0 14.0 190 1002.1 00 00.0 00.0
Gießen/Wettenberg 04:00 04.5 04.5 100.0 04.6 04.0 06.0 250 1001.9 00 00.0 00.0
Glücksburg-Meierwik 04:00 09.4 08.4 93.0 14.0 270 0998.2
Goldberg 04:00 05.3 04.8 97.0 02.3 02.0 05.0 230 1000.0 00 00.0 00.0
Görlitz 04:00 05.1 03.7 91.0 02.4 05.0 10.0 210 1002.4 00 00.0 00.0
Gottfrieding 04:00 06.7 05.5 92.0 05.5 05.0 06.0 180 1003.3 00 00.0 00.0
Göttingen 04:00 03.3 03.2 99.0 02.8 08.0 11.0 180 1002.0 00 00.0 00.0
Greifswald 04:00 06.7 06.0 95.0 05.4 08.0 15.0 230 0999.0 00 00.0 00.0
Greifswalder Oie 04:00 09.5 08.7 95.0 08.8 27.0 36.0 240 0998.5 00 00.0 00.0
Großer Arber 04:00 00.6 00.6 100.0 16.0 24.0 200 00 00.0 00.0
Grünow 04:00 06.4 06.3 99.0 06.3 11.0 15.0 210 1000.3 00 00.0 00.0
Hahn 04:00 03.8 02.5 91.0 00.9 06.0 09.0 180 1001.9 00 00.0
Hamburg-Fuhlsbüttel 04:00 03.5 03.0 97.0 01.2 03.0 04.0 170 0999.7 00 00.0 00.0
Hannover 04:00 04.0 03.8 99.0 00.1 04.0 05.0 160 1000.7 00 00.0 00.0
Harburg 04:00 05.8 05.8 100.0 05.7 04.0 10.0 160 1002.7 00 00.0 00.0
Harzgerode 04:00 00.6 00.2 97.0 -00.3 1002.6 00.0 00.0
Helgoland 04:00 12.4 06.9 69.0 10.0 08.0 23.0 260 0999.0 00 00.0 00.0
Hersfeld, Bad 04:00 06.3 06.1 99.0 06.5 02.0 04.0 190 1001.8 00 00.0 00.0
Hof 04:00 05.7 04.0 89.0 04.7 07.0 13.0 190 1002.5 00 00.0 00.0
Hohenpeißenberg 04:00 04.3 03.5 95.0 03.6 09.0 14.0 130 00 00.0 00.0
Hoherodskopf/Vogelsberg 04:00 04.5 04.5 100.0 03.8 03.0 08.0 250 1001.7 00 00.0 00.0
Hohn 04:00 07.1 06.9 99.0 04.0 000 0998.6
Holzdorf (Flugplatz) 04:00 05.1 04.4 95.0 04.0 200 1001.6
Hoyerswerda 04:00 04.4 04.0 97.0 03.9 05.0 13.0 200 1002.2 00 00.0 00.0
Idar-Oberstein 04:00 01.9 01.5 97.0 04.0 250 1002.4
Ingolstadt (Flugplatz) 04:00 05.3 04.7 96.0 04.0 010 1002.9
Itzehoe 04:00 04.6 04.3 98.0 03.2 02.0 03.0 100 0999.3 00.0
Kahler Asten 04:00 03.5 03.5 100.0 03.3 13.0 17.0 270 00 00.0 00.0
Kaisersbach-Cronhütte 04:00 04.1 03.7 97.0 04.0 00.0 03.0 000 1002.6 00 00.0 00.0
Kempten 04:00 05.8 05.4 97.0 05.6 00.0 04.0 000 1002.2 00 00.0 00.0
Kiel-Holtenau 04:00 08.1 07.4 95.0 07.3 10.0 15.0 260 0998.5 00.0 00.0
Kissingen, Bad 04:00 06.0 05.8 99.0 06.4 02.0 05.0 010 1002.2 00 00.0 00.0
Kleiner Feldberg/Taunus 04:00 03.9 02.4 90.0 02.5 06.0 12.0 230 00 00.0 00.0
Klippeneck 04:00 04.7 04.0 95.0 04.4 02.0 06.0 200 00 00.0 00.0
Köln-Bonn 04:00 03.9 03.4 97.0 02.8 09.0 11.0 110 1001.4 00 00.0
Konstanz 04:00 07.5 07.2 98.0 07.4 03.0 05.0 030 1001.9 00 00.0 00.0
Kümmersbruck 04:00 04.3 04.1 99.0 07.0 100 1003.4
Kyritz 04:00 04.6 04.2 97.0 04.0 07.0 09.0 200 1000.7 00 00.0 00.0
Laage (Flugplatz) 04:00 05.8 05.4 97.0 11.0 220 0999.2
Lahr 04:00 08.2 07.5 95.0 07.1 02.0 05.0 190 1001.6 00 00.0 00.0
Laupheim 04:00 06.8 06.1 95.0 04.0 120 1002.1
Lautertal-Oberlauter 04:00 05.9 05.0 94.0 05.6 06.0 12.0 060 1002.6 00 00.0 00.0
Lechfeld 04:00 06.0 05.7 98.0 07.0 150 1002.5
Leck 04:00 07.0 06.3 95.0 06.6 00.0 04.0 000 0998.6 00 00.0 00.0
Leinefelde 04:00 03.4 03.4 100.0 01.3 02.0 05.0 040 1002.2 00 00.0 00.0
Leipzig-Holzhausen 04:00 05.4 05.1 98.0 03.2 04.0 06.0 170 1001.7 00.0 00.0
Leipzig/Halle 04:00 04.4 03.8 96.0 01.9 12.0 15.0 220 1001.8 00 00.0 00.0
Leutkirch-Herlazhofen 04:00 05.7 05.5 99.0 05.4 02.0 04.0 150 1002.2 00 00.0 00.0
Lichtenhain-Mittelndorf 04:00 03.6 03.1 97.0 03.0 04.0 08.0 100 1003.0 00 00.0 00.0
Lindenberg 04:00 04.9 04.5 97.0 04.8 08.0 12.0 230 1001.5 00 00.0 00.0
Lippspringe, Bad 04:00 06.1 05.7 97.0 05.9 03.0 05.0 140 1001.2 00 00.0 00.0
List auf Sylt 04:00 10.3 09.0 92.0 09.4 24.0 29.0 360 0998.9 00 00.7 00.0
Lübeck-Blankensee 04:00 04.6 04.4 99.0 02.3 03.0 11.0 200 0999.6 00 00.0 00.0
Lüchow 04:00 02.8 02.6 99.0 01.8 04.0 08.0 180 1000.7 00 00.0 00.0
Lüdenscheid 04:00 03.9 03.3 96.0 01.5 00.0 07.0 000 1001.5 00 00.0 00.0
Lügde-Paenbruch 04:00 03.2 03.2 100.0 02.3 06.0 12.0 150 1001.6 00.0 00.0
Magdeburg 04:00 07.6 06.5 93.0 06.2 04.0 08.0 220 1001.3 00 00.0 00.0
Mannheim 04:00 07.5 07.2 98.0 06.6 05.0 12.0 160 1001.8 00 00.0 00.0
Manschnow 04:00 06.5 06.4 99.0 06.4 08.0 16.0 230 1001.1 00 00.0 00.0
Marienberg 04:00 04.1 02.5 89.0 03.2 10.0 16.0 230 1002.7 00.0 00.0
Marienberg, Bad 04:00 04.5 04.2 98.0 00.7 02.0 05.0 120 1001.6 00 00.0 00.0
Marnitz 04:00 04.6 04.4 99.0 01.5 04.0 15.0 240 1000.6 00 00.0 00.0
Meiningen 04:00 05.2 04.9 98.0 05.2 05.0 10.0 170 1002.2 00 00.0 00.0
Meßstetten 04:00 05.0 03.9 93.0 04.6 02.0 05.0 050 00 00.0 00.0
Michelstadt-Vielbrunn 04:00 05.6 05.2 97.0 04.9 07.0 11.0 220 1001.9 00 00.0 00.0
Mühlacker 04:00 05.4 04.7 95.0 05.3 03.0 04.0 140 1002.2 00.0 00.0
Mühldorf 04:00 05.2 05.2 100.0 04.1 06.0 08.0 080 1003.4 00 00.0 00.0
München-Flughafen 04:00 06.3 05.7 96.0 05.2 03.0 05.0 010 1003.1 00 00.0 00.0
München-Stadt 04:00 07.5 06.0 90.0 07.4 06.0 10.0 150 1002.4 00 00.0 00.0
Münster/Osnabrück 04:00 04.5 04.4 99.0 02.0 03.0 05.0 140 1000.5 00 00.0 00.0
Neu-Ulrichstein 04:00 05.8 05.5 98.0 05.6 05.0 09.0 170 1001.8 00 00.0 00.0
Neuburg/Donau (Flugplatz) 04:00 04.9 04.6 98.0 04.0 040 1003.0
Neuhaus am Rennweg 04:00 03.6 03.3 98.0 03.2 10.0 16.0 210 00.0 00.0
Neuhütten/Spessart 04:00 03.4 03.3 99.0 03.9 03.0 04.0 050 1002.5 00 00.0 00.0
Niederstetten 04:00 05.1 04.5 96.0 07.0 160 1002.4
Norderney 04:00 09.0 08.4 96.0 08.0 10.0 15.0 180 0999.3 00 00.0 00.0
Nordholz (Flugplatz) 04:00 07.0 06.7 98.0 11.0 210 0999.2
Nörvenich (Flugplatz) 04:00 04.1 03.5 96.0 07.0 130 1000.9
Nürburg-Barweiler 04:00 01.8 01.2 96.0 00.1 02.0 08.0 060 1002.2 00 00.0 00.0
Nürnberg 04:00 04.4 03.7 95.0 03.4 14.0 15.0 100 1003.1 00 00.0 00.0
Oberstdorf 04:00 05.4 04.9 97.0 05.2 04.0 06.0 230 00 00.2 00.0
Offenbach-Wetterpark 04:00 06.1 05.5 96.0 06.0 03.0 09.0 160 1001.8 00 00.0 00.0
Öhringen 04:00 06.5 05.4 93.0 05.9 03.0 08.0 010 1002.3 00 00.0 00.0
Oschatz 04:00 05.2 04.2 93.0 04.1 06.0 12.0 220 1002.1 00 00.0 00.0
Osterfeld 04:00 05.7 04.4 91.0 04.7 05.0 07.0 200 1002.0 00.0 00.0
Pelzerhaken 04:00 08.6 07.4 92.0 07.4 11.0 19.0 260 0999.2 00.0 00.0
Plauen 04:00 05.3 04.4 94.0 04.9 04.0 11.0 200 1002.6 00.0 00.0
Potsdam 04:00 06.8 06.2 96.0 06.6 08.0 13.0 240 1001.1 00 00.0 00.0
Putbus 04:00 07.2 06.5 95.0 06.1 13.0 23.0 240 0998.4 00 00.0 00.0
Quickborn 04:00 02.5 02.4 99.0 00.9 02.0 06.0 110 0999.6 00.0 00.0
Regensburg 04:00 05.9 05.5 97.0 04.8 03.0 06.0 110 1003.5 00 00.0 00.0
Rheinstetten 04:00 06.4 05.9 97.0 05.0 00.0 09.0 000 1001.6 00 00.0 00.0
Rostock-Warnemünde 04:00 07.4 06.4 93.0 06.2 16.0 23.0 200 0998.7 00 00.0 00.0
Roth 04:00 04.5 04.1 97.0 03.7 06.0 10.0 160 1003.2 00.0 00.0
Saarbrücken-Ensheim 04:00 06.1 06.0 99.0 06.0 04.0 05.0 080 1001.6 00 00.0
Salzuflen, Bad 04:00 06.7 06.1 96.0 06.2 05.0 10.0 220 1000.8 00.0 00.0
Sankt Peter-Ording 04:00 10.3 08.2 87.0 07.8 14.0 23.0 240 0998.7 00 00.0 00.0
Schauenburg-Elgershausen 04:00 04.4 03.4 93.0 03.1 02.0 06.0 110 1001.9 00 00.0 00.0
Schleiz 04:00 05.8 04.0 88.0 05.2 09.0 15.0 170 1002.1 00.0 00.0
Schleswig 04:00 07.7 07.1 96.0 07.0 09.0 14.0 250 0998.7 00 00.0 00.0
Schleswig-Jagel 04:00 06.1 06.0 99.0 07.0 220 0998.7
Schmücke 04:00 03.3 03.0 98.0 03.4 15.0 22.0 230 00 00.0 00.0
Schönhagen (Ostseebad) 04:00 08.3 07.3 93.0 08.0 10.0 15.0 250 0998.3 00 00.0 00.0
Schwerin 04:00 04.9 04.4 97.0 04.1 10.0 15.0 220 0999.8 00 00.0 00.0
Seehausen 04:00 03.0 02.7 98.0 01.5 04.0 06.0 190 1000.7 00 00.0 00.0
Soltau 04:00 02.7 02.3 97.0 01.2 00.0 06.0 000 1000.5 00 00.0 00.0
Stötten 04:00 04.7 04.2 97.0 03.8 03.0 09.0 030 1002.4 00 00.0 00.0
Straubing 04:00 06.1 05.7 97.0 04.3 04.0 07.0 090 1003.4 00 00.0 00.0
Stuttgart (Schnarrenberg) 04:00 07.4 06.0 91.0 05.9 05.0 12.0 140 1001.8 00 00.0 00.0
Stuttgart-Echterdingen 04:00 05.9 05.4 97.0 03.2 04.0 05.0 040 1001.8 00 00.0
Tholey 04:00 05.6 05.3 98.0 05.0 03.0 09.0 360 1001.6 00 00.0 00.0
Trier-Petrisberg 04:00 04.0 03.6 97.0 04.1 07.0 10.0 010 1001.7 00 00.0 00.0
Trollenhagen 04:00 05.6 12.0 19.0 220 00 00.0
Ueckermünde 04:00 04.7 04.1 96.0 03.6 09.0 13.0 200 0999.7 00 00.0 00.0
UFS Deutsche Bucht 04:00 13.2 07.0 66.0 11.0 260 0999.0
UFS TW Ems 04:00
Ulm-Mähringen 04:00 04.9 04.7 99.0 04.9 03.0 07.0 150 1002.7 00 00.0 00.0
Ummendorf 04:00
Waibstadt 04:00 05.7 05.3 97.0 05.9 04.0 07.0 080 1002.0 00 00.0 00.0
Waldmünchen 04:00 05.0 04.7 98.0 05.0 04.0 06.0 090 1003.7 00 00.0 00.0
Warburg 04:00 03.2 03.2 100.0 03.0 04.0 07.0 290 1001.9 00 00.0 00.0
Waren (Müritz) 04:00 06.4 05.8 96.0 03.9 05.0 09.0 230 1000.0 00 00.0 00.0
Wasserkuppe 04:00 03.7 03.1 96.0 03.1 12.0 21.0 250 00 00.0 00.0
Weiden 04:00 05.2 04.4 95.0 05.0 06.0 17.0 150 1003.4 00 00.0 00.0
Weihenstephan-Dürnast 04:00 05.9 05.6 98.0 05.2 03.0 04.0 150 1003.2 00 00.0 00.0
Weinbiet 04:00 08.0 02.8 70.0 05.4 09.0 14.0 010 1001.2 00 00.0 00.0
Weißenburg-Emetzheim 04:00 05.9 05.6 98.0 05.8 09.0 13.0 180 1003.0 00 00.0 00.0
Werl 04:00 04.3 03.8 97.0 02.1 04.0 07.0 180 1001.1 00 00.0 00.0
Wernigerode 04:00 03.5 01.5 87.0 01.7 07.0 12.0 160 1001.6 00 00.0 00.0
Wiesenburg 04:00 06.4 05.6 95.0 06.1 07.0 11.0 250 1001.2 00 00.0 00.0
Wittenberg 04:00 04.4 04.0 97.0 03.6 04.0 06.0 320 1001.5 00 00.0 00.0
Wittmundhafen 04:00 03.2 03.1 99.0 07.0 010 0999.5
Wunsiedel-Schönbrunn 04:00 04.3 03.9 97.0 04.1 11.0 18.0 210 1003.0 00 00.0 00.0
Wunstorf 04:00 05.4 05.4 100.0 07.0 230 1000.3
Würzburg 04:00 06.3 05.7 96.0 05.6 05.0 09.0 160 1002.6 00 00.0 00.0
Zinnwald-Georgenfeld 04:00 00.9 00.4 96.0 -00.9 10.0 17.0 200 00 00.0 00.0
Zugspitze 04:00 -04.6 -05.3 95.0 32.0 54.0 260 00